Terminal Aerodrome Forecast
Issued by NWS

Home | Current Version | Previous Version | Text Only | Print | Product List | Glossary On
Versions: 1 2 3 4 5 6 7 8 9 10 11 12 13 14 15
000
FTUS42 KTBW 020530
TAFPGD
TAF
KPGD 020530Z 0206/0306 VRB03KT P6SM FEW025 SCT100 BKN250
     FM021500 20006KT P6SM VCTS SCT035CB SCT250
     FM022200 27007KT P6SM FEW030 BKN250
     FM030100 VRB03KT P6SM FEW030 BKN250=

USA.gov is the U.S. government's official web portal to all federal, state and local government web resources and services.